Tracking 25723 objects as of 29-Jun-2022
HD Live streaming from Space Station
objects crossing your sky now

DMSP 5D-2 F13 DEB

Track DMSP 5D-2 F13 DEB now!
10-day predictions


NORAD ID: 42304
Int'l Code: 1995-015HW
Perigee: 764.3 km
Apogee: 794.2 km
Inclination: 98.7 °
Period: 100.3 minutes
Semi major axis: 7150 km
RCS: Unknown
Launch date: March 24, 1995
Source: United States (US)
Launch site: AIR FORCE WESTERN TEST RANGE (AFWTR)

Note: This is SATELLITE DEBRIS
aabbcc
Your satellite tracking list
Your tracking list is empty




NASA's NSSDC Master Catalog

Two Line Element Set (TLE):
1 42304U 95015HW  22179.58280210  .00004387  00000-0  15243-2 0  9999
2 42304  98.7272 221.6409 0020875 107.0267 253.3207 14.35892914362716
Source of the keplerian elements: AFSPC